User: anonymous   Login
Location: Shenandoah County Park
(38.9356°N, 78.4524°W)
Time: 01:19:09
(UTC-04:00)
Language:

S-56A Canister/Altair - Orbit

View from above orbital plane
View from above orbital plane
View from above satellite
View from above satellite

Ground track
Ground track

The orbit data is extracted from the following two-line orbital elements,

1 00082U 61004B   25111.02492796  .00000598  00000-0  52345-3 0  9994
2 00082  38.8552 127.5590 1167105 342.7068  13.6840 12.27588871 24910
Epoch (UTC): 21 April 2025 00:35:53
Eccentricity: 0.1167105
inclination: 38.8552°
perigee height: 633 km
apogee height: 2486 km
right ascension of ascending node: 127.5590°
argument of perigee: 342.7068°
revolutions per day: 12.27588871
mean anomaly at epoch: 13.6840°
orbit number at epoch: 2491

The dashed part of the orbit path shows where the satellite is in the earth's shadow,  

DLR